Tracking 18843 objects as of 21-November-2017
HD Live streaming from Space Station
objects crossing your sky now

FENGYUN 1C DEB

Track FENGYUN 1C DEB now!
10-day predictions


NORAD ID: 30216
Int'l Code: 1999-025VZ
Perigee: 625.2 km
Apogee: 746.2 km
Inclination: 99.1 °
Period: 98.3 minutes
Semi major axis: 7056 km
RCS: 0.0219 m2 (small)
Launch date: May 10, 1999
Source: People's Republic of China (PRC)
Launch site: Taiyaun Space Center, China (TSC)

Note: This is SATELLITE DEBRIS
aabbcc
Your satellite tracking list
Your tracking list is empty




NASA's NSSDC Master Catalog

Two Line Element Set (TLE):
1 30216U 99025VZ  17324.87738488  .00003005  00000-0  54789-3 0  9991
2 30216  99.0731 294.3640 0085751  36.9313  23.3790 14.64539623573161
Source of the keplerian elements: AFSPC